Time,TemperatureF,DewpointF,PressureIn,WindDirection,WindDirectionDegrees,WindSpeedMPH,WindSpeedGustMPH,Humidity,HourlyPrecipIn,Conditions,Clouds,dailyrainin,SoftwareType,DateUTC
2013-04-22 00:13:00,51.8,49.0,30.12,NNE,22,0.0,2.0,91,0.00,,,0.00,weatherlink.com 1.10,2013-04-21 22:13:00,
2013-04-22 00:28:00,52.6,50.0,30.12,WSW,250,2.0,2.0,92,0.00,,,0.00,weatherlink.com 1.10,2013-04-21 22:28:00,
2013-04-22 00:43:00,52.2,50.0,30.12,WSW,256,0.0,1.0,91,0.00,,,0.00,weatherlink.com 1.10,2013-04-21 22:43:00,
2013-04-22 00:58:00,51.5,49.0,30.12,WSW,255,0.0,0.0,92,0.00,,,0.00,weatherlink.com 1.10,2013-04-21 22:58:00,
2013-04-22 01:13:00,50.6,49.0,30.12,NW,305,1.0,2.0,93,0.00,,,0.00,weatherlink.com 1.10,2013-04-21 23:13:00,
2013-04-22 01:28:00,49.3,47.0,30.12,South,186,4.0,6.0,90,0.00,,,0.00,weatherlink.com 1.10,2013-04-21 23:28:00,
2013-04-22 01:43:00,49.2,48.0,30.12,South,178,1.0,4.0,95,0.00,,,0.00,weatherlink.com 1.10,2013-04-21 23:43:00,
2013-04-22 01:58:00,50.3,49.0,30.12,SSE,164,0.0,0.0,95,0.00,,,0.00,weatherlink.com 1.10,2013-04-21 23:58:00,
2013-04-22 02:13:00,49.4,48.0,30.11,NNE,12,0.0,1.0,93,0.00,,,0.00,weatherlink.com 1.10,2013-04-22 00:13:00,
2013-04-22 02:28:00,49.0,47.0,30.10,ESE,103,0.0,0.0,94,0.00,,,0.00,weatherlink.com 1.10,2013-04-22 00:28:00,
2013-04-22 02:58:00,48.7,47.0,30.09,SE,135,1.0,2.0,95,0.00,,,0.00,weatherlink.com 1.10,2013-04-22 00:58:00,
2013-04-22 03:13:00,49.4,48.0,30.09,SE,141,0.0,1.0,95,0.00,,,0.00,weatherlink.com 1.10,2013-04-22 01:13:00,
2013-04-22 03:28:00,49.2,48.0,30.08,WSW,255,1.0,1.0,95,0.00,,,0.00,weatherlink.com 1.10,2013-04-22 01:28:00,
2013-04-22 03:43:00,49.0,48.0,30.08,WSW,256,0.0,0.0,95,0.00,,,0.00,weatherlink.com 1.10,2013-04-22 01:43:00,
2013-04-22 03:58:00,48.4,47.0,30.07,NE,56,0.0,4.0,94,0.00,,,0.00,weatherlink.com 1.10,2013-04-22 01:58:00,
2013-04-22 04:13:00,48.5,47.0,30.08,ENE,72,0.0,1.0,95,0.00,,,0.00,weatherlink.com 1.10,2013-04-22 02:13:00,
2013-04-22 04:28:00,48.9,48.0,30.08,North,10,0.0,1.0,95,0.00,,,0.00,weatherlink.com 1.10,2013-04-22 02:28:00,
2013-04-22 04:44:00,48.0,47.0,30.07,North,11,0.0,0.0,95,0.00,,,0.00,weatherlink.com 1.10,2013-04-22 02:44:00,
2013-04-22 04:58:00,47.9,47.0,30.07,NNE,19,0.0,0.0,95,0.00,,,0.00,weatherlink.com 1.10,2013-04-22 02:58:00,
2013-04-22 05:13:00,48.0,47.0,30.07,NNE,23,0.0,0.0,95,0.00,,,0.00,weatherlink.com 1.10,2013-04-22 03:13:00,
2013-04-22 05:29:00,48.3,47.0,30.06,NNE,23,0.0,0.0,95,0.00,,,0.00,weatherlink.com 1.10,2013-04-22 03:29:00,
2013-04-22 05:44:00,48.5,48.0,30.05,NNE,23,0.0,0.0,96,0.00,,,0.00,weatherlink.com 1.10,2013-04-22 03:44:00,
2013-04-22 05:59:00,47.9,47.0,30.06,South,190,2.0,3.0,95,0.00,,,0.00,weatherlink.com 1.10,2013-04-22 03:59:00,
2013-04-22 06:14:00,47.9,47.0,30.06,SSW,198,0.0,2.0,96,0.00,,,0.00,weatherlink.com 1.10,2013-04-22 04:14:00,
2013-04-22 06:29:00,48.4,47.0,30.05,SSW,211,0.0,0.0,96,0.00,,,0.00,weatherlink.com 1.10,2013-04-22 04:29:00,
2013-04-22 06:44:00,48.7,48.0,30.05,NNW,340,0.0,1.0,96,0.00,,,0.00,weatherlink.com 1.10,2013-04-22 04:44:00,
2013-04-22 06:59:00,49.1,48.0,30.05,ESE,115,0.0,0.0,96,0.00,,,0.00,weatherlink.com 1.10,2013-04-22 04:59:00,
2013-04-22 07:14:00,49.0,48.0,30.06,ENE,72,3.0,3.0,96,0.00,,,0.00,weatherlink.com 1.10,2013-04-22 05:14:00,
2013-04-22 07:29:00,48.5,47.0,30.06,NE,51,2.0,4.0,95,0.00,,,0.00,weatherlink.com 1.10,2013-04-22 05:29:00,
2013-04-22 07:44:00,48.3,47.0,30.07,ENE,63,0.0,4.0,96,0.00,,,0.00,weatherlink.com 1.10,2013-04-22 05:44:00,
2013-04-22 07:59:00,48.6,48.0,30.06,East,79,0.0,0.0,96,0.00,,,0.00,weatherlink.com 1.10,2013-04-22 05:59:00,
2013-04-22 08:14:00,49.5,48.0,30.07,NE,37,0.0,0.0,96,0.00,,,0.00,weatherlink.com 1.10,2013-04-22 06:14:00,
2013-04-22 08:29:00,50.4,49.0,30.07,ENE,75,0.0,0.0,96,0.00,,,0.00,weatherlink.com 1.10,2013-04-22 06:29:00,
2013-04-22 08:44:00,51.2,50.0,30.07,SE,127,0.0,0.0,95,0.00,,,0.00,weatherlink.com 1.10,2013-04-22 06:44:00,
2013-04-22 08:59:00,52.3,51.0,30.07,ENE,61,0.0,0.0,95,0.00,,,0.00,weatherlink.com 1.10,2013-04-22 06:59:00,
2013-04-22 09:14:00,53.2,52.0,30.08,NE,53,0.0,0.0,94,0.00,,,0.00,weatherlink.com 1.10,2013-04-22 07:14:00,
2013-04-22 09:29:00,54.2,52.0,30.08,ENE,61,0.0,0.0,93,0.00,,,0.00,weatherlink.com 1.10,2013-04-22 07:29:00,
2013-04-22 09:44:00,55.3,53.0,30.08,NNE,18,0.0,0.0,91,0.00,,,0.00,weatherlink.com 1.10,2013-04-22 07:44:00,
2013-04-22 09:59:00,56.0,53.0,30.08,ENE,57,0.0,0.0,89,0.00,,,0.00,weatherlink.com 1.10,2013-04-22 07:59:00,
2013-04-22 10:14:00,57.5,54.0,30.08,East,84,0.0,0.0,87,0.00,,,0.00,weatherlink.com 1.10,2013-04-22 08:14:00,
2013-04-22 10:29:00,57.9,53.0,30.08,ESE,108,0.0,0.0,83,0.00,,,0.00,weatherlink.com 1.10,2013-04-22 08:29:00,
2013-04-22 10:44:00,59.2,52.0,30.08,East,80,0.0,3.0,78,0.00,,,0.00,weatherlink.com 1.10,2013-04-22 08:44:00,
2013-04-22 10:59:00,60.4,52.0,30.09,NNE,27,0.0,3.0,74,0.00,,,0.00,weatherlink.com 1.10,2013-04-22 08:59:00,
2013-04-22 11:14:00,61.5,51.0,30.08,South,190,2.0,4.0,69,0.00,,,0.00,weatherlink.com 1.10,2013-04-22 09:14:00,
2013-04-22 11:29:00,62.6,51.0,30.08,WNW,287,1.0,4.0,65,0.00,,,0.00,weatherlink.com 1.10,2013-04-22 09:29:00,
2013-04-22 11:44:00,62.9,48.0,30.08,South,180,1.0,5.0,58,0.00,,,0.00,weatherlink.com 1.10,2013-04-22 09:44:00,
2013-04-22 12:00:00,62.5,43.0,30.07,West,269,5.0,8.0,50,0.00,,,0.00,weatherlink.com 1.10,2013-04-22 10:00:00,
2013-04-22 12:15:00,61.7,45.0,30.08,West,262,8.0,9.0,54,0.00,,,0.00,weatherlink.com 1.10,2013-04-22 10:15:00,
2013-04-22 12:30:00,61.6,46.0,30.08,SSW,198,4.0,6.0,57,0.00,,,0.00,weatherlink.com 1.10,2013-04-22 10:30:00,
2013-04-22 12:45:00,61.3,42.0,30.08,SW,235,9.0,12.0,50,0.00,,,0.00,weatherlink.com 1.10,2013-04-22 10:45:00,
2013-04-22 13:00:00,60.7,43.0,30.08,West,274,10.0,13.0,52,0.00,,,0.00,weatherlink.com 1.10,2013-04-22 11:00:00,
2013-04-22 13:15:00,60.9,44.0,30.07,West,278,9.0,13.0,55,0.00,,,0.00,weatherlink.com 1.10,2013-04-22 11:15:00,
2013-04-22 13:30:00,61.4,42.0,30.07,WSW,255,10.0,12.0,50,0.00,,,0.00,weatherlink.com 1.10,2013-04-22 11:30:00,
2013-04-22 13:45:00,61.4,42.0,30.07,West,270,4.0,11.0,50,0.00,,,0.00,weatherlink.com 1.10,2013-04-22 11:45:00,
2013-04-22 14:00:00,61.9,44.0,30.07,West,280,4.0,13.0,52,0.00,,,0.00,weatherlink.com 1.10,2013-04-22 12:00:00,
2013-04-22 14:15:00,62.0,45.0,30.07,WNW,285,6.0,11.0,54,0.00,,,0.00,weatherlink.com 1.10,2013-04-22 12:15:00,
2013-04-22 14:30:00,61.9,43.0,30.06,WNW,285,8.0,14.0,50,0.00,,,0.00,weatherlink.com 1.10,2013-04-22 12:30:00,
2013-04-22 14:45:00,62.1,42.0,30.06,WNW,300,5.0,13.0,48,0.00,,,0.00,weatherlink.com 1.10,2013-04-22 12:45:00,
2013-04-22 15:00:00,61.8,43.0,30.06,West,281,8.0,11.0,50,0.00,,,0.00,weatherlink.com 1.10,2013-04-22 13:00:00,
2013-04-22 15:15:00,61.8,43.0,30.06,West,280,6.0,12.0,50,0.00,,,0.00,weatherlink.com 1.10,2013-04-22 13:15:00,
2013-04-22 15:30:00,61.7,41.0,30.06,WSW,256,12.0,12.0,46,0.00,,,0.00,weatherlink.com 1.10,2013-04-22 13:30:00,
2013-04-22 15:45:00,61.2,41.0,30.06,West,267,8.0,13.0,47,0.00,,,0.00,weatherlink.com 1.10,2013-04-22 13:45:00,
2013-04-22 16:00:00,61.0,40.0,30.06,West,274,7.0,13.0,47,0.00,,,0.00,weatherlink.com 1.10,2013-04-22 14:00:00,
2013-04-22 16:15:00,60.8,41.0,30.06,WNW,283,9.0,12.0,48,0.00,,,0.00,weatherlink.com 1.10,2013-04-22 14:15:00,
2013-04-22 16:30:00,60.6,42.0,30.06,WNW,282,8.0,10.0,50,0.00,,,0.00,weatherlink.com 1.10,2013-04-22 14:30:00,
2013-04-22 16:45:00,60.6,42.0,30.06,WNW,291,5.0,12.0,50,0.00,,,0.00,weatherlink.com 1.10,2013-04-22 14:45:00,
2013-04-22 17:00:00,60.5,42.0,30.05,West,267,5.0,9.0,50,0.00,,,0.00,weatherlink.com 1.10,2013-04-22 15:00:00,
2013-04-22 17:15:00,60.4,42.0,30.05,West,271,5.0,8.0,51,0.00,,,0.00,weatherlink.com 1.10,2013-04-22 15:15:00,
2013-04-22 17:30:00,60.3,42.0,30.05,WNW,294,5.0,7.0,51,0.00,,,0.00,weatherlink.com 1.10,2013-04-22 15:30:00,
2013-04-22 17:45:00,60.3,42.0,30.05,WNW,291,2.0,7.0,51,0.00,,,0.00,weatherlink.com 1.10,2013-04-22 15:45:00,
2013-04-22 18:00:00,60.2,42.0,30.05,NW,311,1.0,2.0,52,0.00,,,0.00,weatherlink.com 1.10,2013-04-22 16:00:00,
2013-04-22 18:15:00,59.9,43.0,30.05,NNW,335,3.0,5.0,53,0.00,,,0.00,weatherlink.com 1.10,2013-04-22 16:15:00,
2013-04-22 18:30:00,59.9,43.0,30.05,NW,323,2.0,5.0,53,0.00,,,0.00,weatherlink.com 1.10,2013-04-22 16:30:00,
2013-04-22 18:45:00,59.6,42.0,30.05,WNW,297,3.0,5.0,53,0.00,,,0.00,weatherlink.com 1.10,2013-04-22 16:45:00,
2013-04-22 19:00:00,59.3,42.0,30.05,West,277,4.0,5.0,54,0.00,,,0.00,weatherlink.com 1.10,2013-04-22 17:00:00,
2013-04-22 19:15:00,58.8,43.0,30.05,WNW,298,3.0,6.0,56,0.00,,,0.00,weatherlink.com 1.10,2013-04-22 17:15:00,
2013-04-22 19:30:00,58.5,44.0,30.05,NW,315,1.0,5.0,58,0.00,,,0.00,weatherlink.com 1.10,2013-04-22 17:30:00,
2013-04-22 19:45:00,59.1,44.0,30.06,NW,306,1.0,3.0,58,0.00,,,0.00,weatherlink.com 1.10,2013-04-22 17:45:00,
2013-04-22 20:00:00,58.6,44.0,30.06,NW,312,1.0,3.0,59,0.00,,,0.00,weatherlink.com 1.10,2013-04-22 18:00:00,
2013-04-22 20:15:00,58.1,44.0,30.07,WNW,287,1.0,4.0,59,0.00,,,0.00,weatherlink.com 1.10,2013-04-22 18:15:00,
2013-04-22 20:30:00,57.1,44.0,30.08,WNW,284,2.0,3.0,61,0.00,,,0.00,weatherlink.com 1.10,2013-04-22 18:30:00,
2013-04-22 20:45:00,56.3,44.0,30.08,WNW,292,2.0,3.0,63,0.00,,,0.00,weatherlink.com 1.10,2013-04-22 18:45:00,
2013-04-22 21:00:00,56.3,44.0,30.09,West,271,2.0,3.0,64,0.00,,,0.00,weatherlink.com 1.10,2013-04-22 19:00:00,
2013-04-22 21:15:00,56.3,45.0,30.09,West,278,2.0,3.0,65,0.00,,,0.00,weatherlink.com 1.10,2013-04-22 19:15:00,
2013-04-22 21:30:00,55.6,44.0,30.10,NW,312,1.0,2.0,66,0.00,,,0.00,weatherlink.com 1.10,2013-04-22 19:30:00,
2013-04-22 21:45:00,54.9,44.0,30.11,WSW,251,1.0,2.0,68,0.00,,,0.00,weatherlink.com 1.10,2013-04-22 19:45:00,
2013-04-22 22:00:00,52.6,44.0,30.11,South,188,0.0,2.0,73,0.00,,,0.00,weatherlink.com 1.10,2013-04-22 20:00:00,
2013-04-22 22:14:00,52.2,43.0,30.12,SSE,158,1.0,3.0,72,0.00,,,0.00,weatherlink.com 1.10,2013-04-22 20:14:00,
2013-04-22 22:29:00,50.1,43.0,30.12,SSE,156,0.0,0.0,77,0.00,,,0.00,weatherlink.com 1.10,2013-04-22 20:29:00,
2013-04-22 22:44:00,51.0,44.0,30.13,SSW,196,1.0,3.0,78,0.00,,,0.00,weatherlink.com 1.10,2013-04-22 20:44:00,
2013-04-22 22:59:00,51.2,44.0,30.13,SSW,205,0.0,2.0,76,0.00,,,0.00,weatherlink.com 1.10,2013-04-22 20:59:00,
2013-04-22 23:14:00,49.5,43.0,30.14,SSW,192,0.0,0.0,79,0.00,,,0.00,weatherlink.com 1.10,2013-04-22 21:14:00,
2013-04-22 23:29:00,48.6,43.0,30.14,SSE,159,0.0,0.0,81,0.00,,,0.00,weatherlink.com 1.10,2013-04-22 21:29:00,
2013-04-22 23:44:00,48.6,43.0,30.14,SE,145,0.0,0.0,82,0.00,,,0.00,weatherlink.com 1.10,2013-04-22 21:44:00,
2013-04-22 23:59:00,48.5,43.0,30.14,SE,146,0.0,0.0,82,0.00,,,0.00,weatherlink.com 1.10,2013-04-22 21:59:00,